Hourly Data Report for November 14, 2004

SHERBROOKE A
QUEBEC

45°26'00.000" N
71°41'00.000" W
241.40 m
7028124
71610
YSC

Download Data

Hourly Data (November 2004)
Hourly Data Report for November 14, 2004
TIME
LST
Temp Definition
°C
Dew Point Definition
°C
Rel Hum Definition
%
Precip. Amount Definition
mm

Wind Dir Definition
10's deg

Wind Spd Definition
km/h
Visibility Definition
km
Stn Press Definition
kPa
Hmdx Definition


Wind Chill Definition


Weather Definition


00:00 -10.4 -12.7 83   24 6 15.0 100.75   -14  
01:00 -10.0 -12.7 81   24 6 15.0 100.78   -14  
02:00 -11.4 -13.8 82   24 6 15.0 100.81   -15  
03:00 -11.8 -13.8 85   23 4 15.0 100.78   -14  
04:00 -12.4 -14.3 86   29 6 15.0 100.79   -16  
05:00 -12.6 -14.6 85     0 15.0 100.76      
06:00 -13.0 -14.9 86     0 15.0 100.80      
07:00 -10.5 -12.6 85     0 15.0 100.82      
08:00 -8.7 -11.3 81     0 24.1 100.81     Clear
09:00 -6.2 -10.2 73   23 7 24.1 100.78   -10 Clear
10:00 -3.3 -9.4 63   22 7 24.1 100.70   -6 Clear
11:00 -1.2 -8.8 56   26 9 24.1 100.58   -4 Clear
12:00 1.6 -5.9 57   28 22 24.1 100.44     Mainly Clear
13:00 2.5 -4.7 59   27 17 24.1 100.38     Mainly Clear
14:00 2.4 -4.8 59   28 19 24.1 100.31     Mainly Clear
15:00 2.0 -4.5 62   28 15 24.1 100.31     Mainly Clear
16:00 0.7 -4.6 68   28 15 24.1 100.33     Mainly Clear
17:00 -1.0 -4.9 75   25 6 24.1 100.36   -3 Mainly Clear
18:00 -3.0 -5.7 82   27 11 15.0 100.39   -7  
19:00 -3.0 -5.2 85     0 15.0 100.40      
20:00 -4.8 -6.5 88     0 15.0 100.40      
21:00 -5.8 -7.3 89     0 15.0 100.36      
22:00 -5.9 -7.2 91     0 15.0 100.32      
23:00 -6.5 -8.3 87     0 15.0 100.33      

Notes on Data Quality.

Legend

  • E = Estimated
  • M = Missing
  • NA = Not Available*
  • [empty] = Indicates an unobserved value
Date modified: